Back to catalog

CZ-6A DEB

AlivePO
NORAD 61149·DEBRIS·🇨🇳 China

Launched Aug 6, 2024 from Taiyuan Satellite Launch Center

Loading…

Next Passes (next 24 hours)

TLE

FreshSource: Space-Track

Epoch: Sep 13, 2026, 17:26 UTC

1 61149U 24140QT  26256.72650195  .00000608  00000-0  23981-3 0  9998
2 61149  88.9453 258.9594 0027289 296.6922  63.1479 14.27729518107358

Track CZ-6A DEB in real time with AllMySat

Download on the App Store